Charlevoix, MI

4:03 AM EDT on September 21, 2017 (GMT -0400)
Charlevoix Municipal

Weather History for KCVX - January, 2012

Change the Weather History Date:

Thursday, January 19, 2012

  Actual Average Record
Temperature  
Mean Temperature 18 °F -  
Max Temperature 25 °F 30 °F 38 °F (2013)
Min Temperature 10 °F 19 °F 5 °F (2009)
Degree Days  
Heating Degree Days 48    
Moisture  
Dew Point 9 °F    
Average Humidity 75    
Maximum Humidity 95    
Minimum Humidity 58    
Precipitation  
Precipitation 0.00 in - - ()
Sea Level Pressure  
Sea Level Pressure 29.76 in    
Wind  
Wind Speed 18 mph (West)    
Max Wind Speed 28 mph    
Max Gust Speed 37 mph    
Visibility 3 miles    
Events Snow    
Averages and records for this station are not official NWS values.
T = Trace of Precipitation, MM = Missing Value Source: NWS Daily Summary

Daily Weather History Graph

Daily Weather History Graph

Search for Another Location

Airport or City:

Trip Planner

Search our weather history database for the weather conditions in past years. The results will help you decide how hot, cold, wet, or windy it might be!

Date:

Astronomy

Jan. 19, 2012 Rise Set
Actual Time 8:14 AM EST 5:29 PM EST
Civil Twilight 7:41 AM EST 6:02 PM EST
Nautical Twilight 7:05 AM EST 6:38 PM EST
Astronomical Twilight 6:30 AM EST 7:13 PM EST
Moon 4:53 AM EST (1/19) 1:57 PM EST (1/19)
Length of Visible Light 10h 20m
Length of Day
9h 14m
Waning Crescent, 16% of the Moon is Illuminated
Jan 19
Waning Crescent
Jan 23
New
Jan 30
First Quarter
Feb 7
Full
Feb 14
Last Quarter

Hourly Weather History & Observations

Time (EST) Temp. Windchill Dew Point Humidity Pressure Visibility Wind Dir Wind Speed Gust Speed Precip Events Conditions
12:14 AM 21.9 °F 9.8 °F 14.7 °F 74% 29.72 in 4.0 mi South 12.7 mph 23.0 mph N/A Snow Light Snow
12:34 AM 20.8 °F 7.3 °F 16.3 °F 83% 29.71 in 1.5 mi South 15.0 mph 24.2 mph N/A Snow Light Snow
1:14 AM 21.0 °F 7.6 °F 17.2 °F 85% 29.68 in 2.0 mi South 15.0 mph 24.2 mph N/A Snow Light Snow
1:34 AM 21.0 °F 7.1 °F 17.4 °F 86% 29.66 in 2.5 mi South 16.1 mph 24.2 mph N/A Snow Light Snow
1:53 AM 20.8 °F 6.4 °F 17.1 °F 85% 29.64 in 3.0 mi SSE 17.3 mph 24.2 mph N/A Snow Light Snow
2:14 AM 20.8 °F 7.3 °F 17.2 °F 86% 29.62 in 2.5 mi SSE 15.0 mph 21.9 mph N/A Snow Light Snow
2:34 AM 20.8 °F 6.4 °F 17.2 °F 86% 29.61 in 1.8 mi SSE 17.3 mph 25.3 mph N/A Snow Light Snow
2:54 AM 21.0 °F 7.1 °F 17.6 °F 87% 29.59 in 1.8 mi SSE 16.1 mph 24.2 mph N/A Snow Light Snow
3:14 AM 20.8 °F 8.4 °F 18.1 °F 89% 29.59 in 1.5 mi South 12.7 mph 21.9 mph N/A Snow Light Snow
3:34 AM 20.8 °F 8.4 °F 18.5 °F 91% 29.57 in 1.0 mi South 12.7 mph 17.3 mph N/A Snow Snow
3:54 AM 20.8 °F 10.4 °F 18.9 °F 92% 29.56 in 1.0 mi South 9.2 mph - N/A Snow Snow
4:14 AM 21.2 °F 11.7 °F 19.4 °F 93% 29.56 in 0.8 mi South 8.1 mph - N/A Snow Snow
4:34 AM 21.9 °F 11.7 °F 20.3 °F 93% 29.55 in 0.5 mi South 9.2 mph - N/A Snow Heavy Snow
4:54 AM 22.3 °F 12.2 °F 21.0 °F 95% 29.55 in 0.8 mi SW 9.2 mph 17.3 mph N/A Snow Snow
5:15 AM 24.6 °F 9.4 °F 22.6 °F 92% 29.54 in 1.2 mi West 23.0 mph 28.8 mph N/A Snow Light Snow
5:34 AM 25.2 °F 9.8 °F 22.1 °F 88% 29.54 in 1.8 mi West 24.2 mph 32.2 mph N/A Snow Light Snow
5:54 AM 24.1 °F 8.7 °F 22.1 °F 92% 29.54 in 0.8 mi West 23.0 mph 33.4 mph N/A Snow Snow
6:15 AM 23.9 °F 8.8 °F 20.8 °F 88% 29.54 in 1.2 mi West 21.9 mph 31.1 mph N/A Snow Light Snow
6:34 AM 23.0 °F 7.2 °F 20.5 °F 90% 29.56 in 0.8 mi WNW 23.0 mph 32.2 mph N/A Snow Snow
6:54 AM 22.1 °F 4.8 °F 19.2 °F 89% 29.57 in 1.0 mi WNW 27.6 mph 36.8 mph N/A Snow Snow
7:14 AM 20.8 °F 3.7 °F 16.2 °F 82% 29.59 in 1.2 mi WNW 25.3 mph 33.4 mph N/A Snow Light Snow
7:34 AM 19.6 °F 2.7 °F 14.2 °F 80% 29.61 in 1.8 mi WNW 23.0 mph 34.5 mph N/A Snow Light Snow
7:54 AM 17.4 °F -0.2 °F 11.8 °F 79% 29.63 in 2.0 mi WNW 23.0 mph 29.9 mph N/A Snow Light Snow
8:15 AM 16.3 °F -1.2 °F 10.9 °F 79% 29.65 in 1.8 mi WNW 21.9 mph 28.8 mph N/A   Haze
8:34 AM 14.9 °F -3.9 °F 9.7 °F 80% 29.68 in 1.2 mi WNW 24.2 mph 28.8 mph N/A Snow Light Snow
8:54 AM 14.5 °F -4.0 °F 9.0 °F 79% 29.70 in 1.2 mi WNW 23.0 mph 32.2 mph N/A Snow Light Snow
9:14 AM 13.6 °F -5.2 °F 8.1 °F 78% 29.71 in 1.5 mi WNW 23.0 mph 31.1 mph N/A Snow Light Snow
9:34 AM 12.9 °F -4.9 °F 6.8 °F 77% 29.73 in 1.8 mi WNW 19.6 mph 28.8 mph N/A   Haze
9:54 AM 12.6 °F -5.8 °F 5.4 °F 73% 29.74 in 2.5 mi WNW 20.7 mph 28.8 mph N/A   Haze
10:14 AM 12.2 °F -7.1 °F 5.0 °F 73% 29.76 in 2.0 mi West 23.0 mph 29.9 mph N/A   Haze
10:34 AM 12.0 °F -6.5 °F 4.5 °F 72% 29.77 in 2.5 mi WNW 20.7 mph 28.8 mph N/A   Haze
10:54 AM 11.3 °F -7.0 °F 4.1 °F 73% 29.78 in 2.5 mi WNW 19.6 mph 26.5 mph N/A   Haze
11:14 AM 11.1 °F -8.5 °F 4.1 °F 73% 29.79 in 1.5 mi WNW 23.0 mph 32.2 mph N/A   Haze
11:34 AM 10.9 °F -9.2 °F 3.6 °F 72% 29.79 in 2.0 mi WNW 24.2 mph 28.8 mph N/A   Haze
11:54 AM 10.9 °F -7.9 °F 4.1 °F 74% 29.80 in 2.5 mi WNW 20.7 mph 25.3 mph N/A   Haze
12:34 PM 11.1 °F -8.5 °F 3.7 °F 72% 29.80 in 1.5 mi WNW 23.0 mph 31.1 mph N/A   Haze
1:14 PM 11.3 °F -7.9 °F 3.2 °F 70% 29.81 in 1.5 mi WNW 21.9 mph 29.9 mph N/A   Haze
1:34 PM 11.8 °F -7.2 °F 3.0 °F 68% 29.81 in 2.0 mi WNW 21.9 mph 29.9 mph N/A   Haze
1:54 PM 11.8 °F -6.7 °F 3.2 °F 68% 29.81 in 1.5 mi WNW 20.7 mph 34.5 mph N/A Snow Light Snow
2:14 PM 12.2 °F -6.7 °F 2.7 °F 66% 29.82 in 2.5 mi NW 21.9 mph 29.9 mph N/A   Haze
2:35 PM 12.2 °F -7.5 °F 2.7 °F 66% 29.83 in 2.5 mi WNW 24.2 mph 31.1 mph N/A   Haze
2:54 PM 12.2 °F -7.9 °F 3.2 °F 67% 29.84 in 2.5 mi WNW 25.3 mph 33.4 mph N/A   Haze
3:14 PM 12.0 °F -6.5 °F 3.2 °F 68% 29.85 in 2.5 mi WNW 20.7 mph 31.1 mph N/A   Haze
3:34 PM 12.0 °F -6.5 °F 2.8 °F 67% 29.87 in 2.0 mi WNW 20.7 mph 34.5 mph N/A   Haze
3:54 PM 11.8 °F -6.3 °F 1.8 °F 64% 29.87 in 3.0 mi NW 19.6 mph 26.5 mph N/A   Haze
4:15 PM 11.8 °F -7.2 °F 1.8 °F 64% 29.89 in 1.8 mi NW 21.9 mph 33.4 mph N/A   Haze
4:34 PM 11.8 °F -7.2 °F 1.9 °F 65% 29.90 in 2.5 mi WNW 21.9 mph 28.8 mph N/A   Haze
4:54 PM 11.8 °F -6.7 °F 3.7 °F 70% 29.92 in 3.0 mi NW 20.7 mph 29.9 mph N/A   Haze
5:14 PM 11.8 °F -5.8 °F 2.1 °F 65% 29.94 in 5.0 mi NW 18.4 mph 26.5 mph N/A   Haze
6:14 PM 11.7 °F -6.0 °F 1.9 °F 65% 29.96 in 7.0 mi WNW 18.4 mph 27.6 mph N/A   Overcast
6:34 PM 11.7 °F -5.5 °F 2.1 °F 66% 29.97 in 7.0 mi WNW 17.3 mph 24.2 mph N/A   Overcast
6:54 PM 11.3 °F -4.3 °F 1.4 °F 64% 29.97 in 5.0 mi WNW 13.8 mph 26.5 mph N/A   Haze
7:14 PM 11.3 °F -5.5 °F 0.9 °F 63% 29.98 in 7.0 mi NW 16.1 mph 28.8 mph N/A   Overcast
7:34 PM 11.3 °F -5.5 °F 0.5 °F 62% 29.99 in 10.0 mi WNW 16.1 mph 28.8 mph N/A   Overcast
7:55 PM 11.3 °F -1.3 °F 0.3 °F 61% 30.00 in 10.0 mi WNW 9.2 mph 25.3 mph N/A   Overcast
8:14 PM 11.3 °F -6.0 °F 0.7 °F 62% 30.00 in 10.0 mi West 17.3 mph 21.9 mph N/A   Overcast
8:34 PM 11.1 °F -5.1 °F -0.9 °F 58% 30.00 in 10.0 mi WNW 15.0 mph 21.9 mph N/A   Overcast
8:55 PM 11.5 °F -4.1 °F 0.5 °F 61% 30.01 in 10.0 mi WNW 13.8 mph 23.0 mph N/A   Overcast
9:14 PM 11.3 °F -3.6 °F 0.3 °F 61% 30.02 in 10.0 mi West 12.7 mph 19.6 mph N/A   Overcast
9:34 PM 11.3 °F -6.0 °F 1.2 °F 64% 30.02 in 10.0 mi West 17.3 mph - N/A   Overcast
9:55 PM 11.3 °F -4.9 °F 0.3 °F 61% 30.02 in 10.0 mi West 15.0 mph 20.7 mph N/A   Overcast
10:14 PM 11.7 °F -3.2 °F 1.4 °F 63% 30.02 in 10.0 mi WNW 12.7 mph 18.4 mph N/A   Overcast
10:34 PM 11.7 °F -5.0 °F 2.7 °F 67% 30.03 in 7.0 mi WNW 16.1 mph - N/A   Overcast
10:54 PM 11.7 °F -4.4 °F 1.9 °F 65% 30.04 in 10.0 mi West 15.0 mph - N/A   Overcast
11:14 PM 11.7 °F -4.4 °F 1.6 °F 64% 30.05 in 10.0 mi West 15.0 mph 19.6 mph N/A   Overcast
11:34 PM 11.3 °F -6.0 °F 1.2 °F 64% 30.06 in 10.0 mi West 17.3 mph - N/A   Overcast
11:54 PM 11.5 °F -5.8 °F 1.9 °F 66% 30.07 in 10.0 mi West 17.3 mph - N/A   Overcast